Simultaneous Nadir Overpasses (SNOs) Predictions

Prediction of SNOs between NOAA-20 and AQUA Satellite Orbit:

Table of predicted SNOs for the next 14.0 days since TLE Epoch: 12/14/2024
Index Date (NOAA-20) Time (NOAA-20) Lat,Lon (NOAA-20) SZA (NOAA-20 ) Date (AQUA) Time (AQUA) Lat,Lon (AQUA) SZA (AQUA ) Distance(km) Time Diff (sec)
1 12/16/2024 07:32:39 -81.32, 175.91 69.91 12/16/2024 07:33:24 -81.32, 176.07 69.96 2.83 45
2 12/16/2024 08:23:23 81.32, -16.51 110.06 12/16/2024 08:22:44 81.31, -16.50 110.08 0.69 39
3 12/18/2024 17:54:24 81.32,-159.70 110.23 12/18/2024 17:55:36 81.32,-159.52 110.17 3.09 72
4 12/18/2024 18:45:08 -81.32, 8.17 69.85 12/18/2024 18:44:56 -81.32, 8.10 69.83 1.22 12
5 12/21/2024 05:06:52 81.32, 32.87 110.21 12/21/2024 05:07:06 81.32, 32.72 110.22 2.45 14
6 12/21/2024 05:57:37 -81.32,-159.62 69.82 12/21/2024 05:56:26 -81.32,-159.66 69.78 0.65 71
7 12/23/2024 15:28:38 -81.32, 57.11 69.73 12/23/2024 15:29:16 -81.31, 57.01 69.74 1.83 38
8 12/23/2024 16:19:22 81.32,-135.41 110.25 12/23/2024 16:18:35 81.31,-135.22 110.25 3.27 47
9 12/26/2024 01:50:22 81.32, 81.63 110.26 12/26/2024 01:51:23 81.32, 81.68 110.22 0.87 61



Historial Predications of SNOs between NOAA-20 and AQUA
